Weather in Nizhnyaya Maktama

Russia / Republic of Tatarstan     54°51′43″N   52°25′36″E
temp.,
°C
wind,
m/s
gust,
m/s
humid.,
%
clouds,
%
prec.,
mm/h
press.,
hPa
HPBL,
m
18 may, tue
tue1800:00+19sw1147100 0.0 101711
03:00+18sse115154 0.1 101711
06:00+21nne114384 0.0 101764
09:00+25nne33445 0.0 1017595
12:00+29e22365 0.0 10161348
15:00+29nne433775 0.0 10162440
18:00+21nw466612 0.6 1018235
21:00+18ene34695 1.1 101854
19 may, wed
wed1900:00+16ene512705 0.0 1018237
03:00+14ene410795 0.0 1018203
06:00+16e59740 0.0 1019354
09:00+21e79580 0.0 1019891
12:00+24ese67460 0.0 10191524
15:00+25ese67420 0.0 10191788
18:00+22e48564 0.0 1018253
21:00+17ese236960 0.0 101931
20 may, thu
thu2000:00+15ese22650 0.0 102014
03:00+13ese236949 0.0 102124
06:00+17se4106092 0.0 1021379
09:00+21sse67455 0.0 10201035
12:00+23se67365 0.0 10191737
15:00+23se68345 0.0 10181880
18:00+20ese510500 0.0 1017318
21:00+15ese33560 0.0 101830
21 may, fri
fri2100:00+14e225956 0.0 101617
03:00+13e235849 0.0 101651
06:00+17se5115742 0.0 1015481
09:00+17sse3459100 0.0 1015494
12:00+14sse4786100 0.4 1015370
15:00+16ssw368095 0.8 1015605
18:00+17ssw4782100 0.0 1014349
21:00+14ssw39916 0.3 1015155
22 may, sat
sat2200:00+13sw39939 0.0 1016185
03:00+12sw389492 0.0 1018155
06:00+15wsw478224 0.0 1019318
09:00+19wsw57625 0.0 10191241
12:00+21wsw674949 0.0 10191559
15:00+21w564931 0.0 10201591
18:00+19wnw356221 0.0 1020190
21:00+15nnw117879 0.0 102211